Regional Weather Roundup
Issued by NWS Upton, NY

Current Version | Previous Version | Graphics & Text | Print | Product List | Glossary Off
Versions: 1 2 3 4 5 6 7 8 9 10 11 12 13 14 15 16 17 18 19 20 21 22 23 24 25 26 27 28 29 30 31 32 33 34 35 36 37 38 39 40 41 42 43 44 45 46 47 48 49 50

670
ASUS41 KOKX 272108
RWROKX

REGIONAL WEATHER ROUNDUP
NATIONAL WEATHER SERVICE NEW YORK NY
500 PM EDT MON MAR 27 2017

NOTE: "FAIR" INDICATES FEW OR NO CLOUDS BELOW 12,000 FEET WITH NO
SIGNIFICANT WEATHER AND/OR OBSTRUCTIONS TO VISIBILITY.

NYZ071-072-176-178-NJZ106-104-272200-
NEW YORK CITY METRO AREA

CITY           SKY/WX    TMP DP  RH WIND       PRES   REMARKS
Central Park   CLOUDY    51  45  79 CALM      30.02S
Wall St Helipt CLOUDY    54  47  77 W6        30.01S
LaGuardia APRT PTSUNNY   47  42  83 NE9       29.99F
Kennedy INTL   PTSUNNY   57  49  74 VRB7      30.00F
Breezy Point     N/A     50 N/A N/A S2          N/A
Newark/Liberty PTSUNNY   55  48  77 SW8       29.99S
Teterboro      CLOUDY    52  46  80 CALM      29.99S FOG
$$

NYZ177-179-078>081-272200-
LONG ISLAND NEW YORK

CITY           SKY/WX    TMP DP  RH WIND       PRES   REMARKS
Jones Beach      N/A     48 N/A N/A S3          N/A
Matinecock PT  NOT AVBL
Farmingdale    PTSUNNY   54  47  77 NE6       29.99F
MacArthur/ISP  CLOUDY    51  47  86 N8        29.99F
Shirley        CLOUDY    49  46  90 N8        30.00F
Westhampton    CLOUDY    48  44  86 NW6       30.02S
East Hampton   CLOUDY    49  47  93 CALM      29.99F
Montauk        NOT AVBL
$$

NYZ052-065-067-272200-
HUDSON VALLEY

CITY           SKY/WX    TMP DP  RH WIND       PRES   REMARKS
White Plains   PTSUNNY   47  44  90 SE3       29.98F
Newburgh       PTSUNNY   46  45  93 CALM      29.99F
Montgomery     CLOUDY    46  42  86 S6        29.97F
Poughkeepsie   MOSUNNY   46  41  82 SW9       29.97F
Albany         CLOUDY    46  39  76 S7        29.98F
$$

NJZ001-105-106-008-010-013-015-019>022-104-272200-
NEW JERSEY

CITY           SKY/WX    TMP DP  RH WIND       PRES   REMARKS
Newark/Liberty PTSUNNY   55  48  77 SW8       29.99S
Teterboro      CLOUDY    52  46  80 CALM      29.99S FOG
Caldwell       CLOUDY    53  47  79 CALM      29.99S
Somerville     CLOUDY    54  48  80 VRB3      29.98S
Linden         CLOUDY    55  48  76 CALM      29.99F
Sussex         CLOUDY    49  45  86 CALM      29.98F
Andover          N/A     51  46  83 S5        29.97F
Trenton        CLOUDY    56  51  84 S5        29.99F
Millville      CLOUDY    70  58  65 W7        29.97F
Atlantic City  CLOUDY    67  56  67 SE5       29.98S
Wrightstown    CLOUDY    58  53  83 NW3       29.97S
Toms River     MOSUNNY   65  57  75 W10       29.99F
Belmar         CLOUDY    57  53  86 NW6       30.00F
$$

PAZ047>061-062-071-272200-
EASTERN PENNSYLVANIA

CITY           SKY/WX    TMP DP  RH WIND       PRES   REMARKS
Philadelphia   PTSUNNY   60  52  74 S6        29.99F
Allentown      PTSUNNY   55  47  74 S7        29.98F
Scranton       SUNNY     58  48  69 MISG      29.95F
$$

CTZ002-004>006-009-010-012-RIZ004-006-007-MAZ004-011-015-272200-
SOUTHERN NEW ENGLAND
 IN CT

CITY           SKY/WX    TMP DP  RH WIND       PRES   REMARKS
Bradley INTL   CLOUDY    41  38  89 N5        30.01F
Hartford       CLOUDY    41  39  93 N6        30.02F
Danbury        CLOUDY    47  44  90 CALM      30.00F
Wtrbury/Oxford   N/A     43  39  87 CALM      30.00F FOG
Bridgeport     LGT RAIN  46  43  89 S5        30.00S FOG
Meriden        CLOUDY    42  39  89 N5        30.01F
New Haven      CLOUDY    45  42  89 N7        29.99F
Chester        NOT AVBL
Groton         LGT RAIN  46  44  93 S7        29.98F VSB 1
Wilimantic     CLOUDY    46  44  93 NE3       30.00F

 IN RI

CITY           SKY/WX    TMP DP  RH WIND       PRES   REMARKS
Providence     LGT RAIN  47  44  90 N6        29.99F FOG
Block Island   LGT RAIN  46  45  93 SW10      30.00F VSB 3/4
Westerly       CLOUDY    50  49  96 S5        29.99F
 IN MA

CITY           SKY/WX    TMP DP  RH WIND       PRES   REMARKS
Boston         CLOUDY    43  42  97 N6        30.00F
Worcester      FOG       38  36  92 NE5       29.98F VSB 1/4 WCI  34
Westfield      CLOUDY    41  38  89 NE3       30.00F
Provincetown   CLOUDY    45  44  97 SW10      30.00S
Nantucket      FOG       45  44  97 S13       30.00F VSB 1/2
$$

ANZ330-335-338-340-345-350-353-355-272200-
COASTAL MARINE OBSERVATIONS


STATION/POSITION TIME  SKY/WX   TEMP    WIND        PRES    VSBY  WAVE
                                AIR SEA DIR/SP/G                  HT/PER
                 (UTC)          (F)     (DEG/KT/KT) (MB)    (MI)  (FT/S)
NY HARB ENTRANCE 1950            46 44   CALM  /  2 1016.4          3/ 7
20 S FIRE ISLAND 1950            44 41   CALM  /  2 1016.1          4/ 7
GREAT SOUTH BAY  NOT AVBL
23 SSW MONTAUK P 1950            45 43              1016.7          3/ 6
15 E BARNEGAT LI 2030               44                N/A           4/ 7
HUDSON CANYON    1950            49 45  210/ 10/ 12 1016.8          5/ 7
KINGS POINT      2036            42 39              1015.8
EXECUTION ROCKS  NOT AVBL
CENTRAL LI SOUND 2015            40     320/  4/  6   N/A           0
EASTERN LI SOUND NOT AVBL
ROBBINS REEF     2036            50      CALM  /  2 1015.5
$$


>>>>>>>>>>>>>>>>>>>>>>>>>>>> KEY <<<<<<<<<<<<<<<<<<<<<<<<<<<
>                                                          <
>     SKY/WX - Sky Condition/Present Weather               <
>     TMP    - Temperature in Fahrenheit                   <
>     DP     - Dew Point in Fahrenheit                     <
>     RH     - Relative Humidity in Percent                <
>     WIND   - Direction (from) and Speed in MPH           <
>     PRES   - Mean Sea Level Pressure (inches of Hg)      <
>     WCI    - Wind Chill Index                            <
>     VSB    - VISIBILITY IN MILES                         <
>     HX     - HEAT INDEX                                  <
>     TC     - TEMPERATURE IN CELSIUS                      <
>     VRB    - VARIABLE WIND DIRECTION                     <
>                                                          <
>>>>>>>>>>>>>>>>>>>>>>>>>>>> KEY <<<<<<<<<<<<<<<<<<<<<<<<<<<




USA.gov is the U.S. government's official web portal to all federal, state and local government web resources and services.